Total_Precipitation_Accumulation
0.11 0.06 0.07 0.06 0.09 0.10 0.11 0.15 0.17 0.18 0.16 0.15 0.14 0.13 0.15 0.14 0.11 0.11 0.10 0.13 0.17 0.23 0.26 0.28 0.27 0.25 0.25 0.25 0.21 0.17 0.16 0.17 0.21 0.22 0.27 0.32 0.38 0.40 0.42 0.42 0.50 0.48 0.34
0.08 0.06 0.07 0.05 0.06 0.08 0.10 0.14 0.16 0.16 0.17 0.18 0.19 0.19 0.18 0.13 0.11 0.11 0.10 0.14 0.21 0.25 0.25 0.26 0.24 0.21 0.22 0.19 0.15 0.14 0.14 0.18 0.28 0.35 0.41 0.45 0.50 0.49 0.47 0.44 0.54 0.61 0.39
0.09 0.06 0.05 0.05 0.05 0.07 0.10 0.13 0.15 0.13 0.15 0.17 0.18 0.18 0.15 0.11 0.10 0.10 0.10 0.15 0.20 0.22 0.20 0.17 0.15 0.15 0.15 0.13 0.11 0.12 0.13 0.21 0.37 0.56 0.90 0.83 0.67 0.54 0.51 0.46 0.39 0.35 0.35
0.09 0.06 0.04 0.06 0.06 0.07 0.08 0.11 0.17 0.16 0.15 0.15 0.17 0.16 0.14 0.13 0.13 0.13 0.13 0.16 0.19 0.19 0.16 0.13 0.12 0.12 0.13 0.11 0.10 0.12 0.16 0.26 0.49 0.82 1.46 1.29 0.97 0.81 0.69 0.56 0.39 0.30 0.31
0.08 0.06 0.08 0.08 0.09 0.10 0.09 0.09 0.14 0.17 0.18 0.18 0.19 0.18 0.18 0.18 0.18 0.16 0.17 0.19 0.19 0.19 0.21 0.20 0.18 0.14 0.13 0.13 0.13 0.16 0.25 0.40 0.68 1.13 1.74 1.66 1.46 1.17 0.77 0.57 0.47 0.38 0.36
0.14 0.10 0.10 0.10 0.12 0.14 0.14 0.14 0.15 0.17 0.20 0.22 0.21 0.21 0.21 0.21 0.21 0.19 0.19 0.19 0.20 0.22 0.24 0.27 0.23 0.16 0.13 0.13 0.16 0.22 0.33 0.54 0.78 1.23 1.82 1.78 1.58 1.29 0.81 0.65 0.54 0.45 0.40
0.24 0.22 0.16 0.15 0.14 0.15 0.18 0.22 0.25 0.21 0.22 0.25 0.25 0.24 0.23 0.24 0.23 0.23 0.23 0.22 0.24 0.27 0.28 0.24 0.19 0.14 0.13 0.14 0.18 0.25 0.39 0.67 0.94 1.51 1.85 1.75 1.81 1.37 0.94 0.81 0.70 0.55 0.43
0.37 0.32 0.31 0.24 0.17 0.18 0.22 0.25 0.31 0.34 0.33 0.33 0.31 0.29 0.29 0.27 0.26 0.28 0.29 0.30 0.33 0.36 0.34 0.23 0.17 0.15 0.14 0.14 0.18 0.25 0.41 0.60 0.81 1.42 1.81 1.66 1.51 1.26 1.09 0.97 0.79 0.62 0.50
0.51 0.53 0.50 0.36 0.30 0.30 0.32 0.33 0.37 0.42 0.42 0.42 0.42 0.41 0.37 0.37 0.35 0.35 0.35 0.36 0.39 0.39 0.34 0.26 0.22 0.19 0.18 0.17 0.18 0.22 0.35 0.59 0.84 1.14 1.31 1.59 1.46 1.42 1.23 0.96 0.74 0.60 0.52
0.71 0.73 0.72 0.72 0.65 0.51 0.48 0.53 0.51 0.55 0.53 0.45 0.43 0.45 0.44 0.41 0.38 0.39 0.36 0.40 0.41 0.42 0.38 0.35 0.35 0.30 0.26 0.22 0.22 0.25 0.35 0.45 0.52 0.94 1.50 1.51 1.39 1.50 1.46 1.14 0.86 0.70 0.58
0.92 0.91 0.83 0.90 0.90 0.75 0.66 0.60 0.67 0.70 0.66 0.59 0.50 0.49 0.47 0.55 0.61 0.57 0.49 0.56 0.57 0.57 0.55 0.53 0.50 0.44 0.38 0.31 0.31 0.36 0.35 0.37 0.61 1.12 1.64 1.41 1.41 1.57 1.62 1.40 1.08 0.88 0.73
1.12 1.10 1.06 0.95 0.88 0.85 0.77 0.82 0.89 0.82 0.78 0.71 0.76 0.73 0.76 1.03 1.16 0.97 1.03 1.00 0.94 0.86 0.78 0.72 0.67 0.60 0.50 0.38 0.44 0.47 0.38 0.48 0.80 1.32 1.35 1.26 1.41 1.67 1.86 1.64 1.31 1.09 0.97
1.51 1.31 1.38 1.26 1.09 1.26 1.38 1.23 1.17 1.14 1.14 1.06 1.19 1.22 1.29 1.44 1.44 1.40 1.52 1.36 1.28 1.19 1.10 1.10 0.87 0.71 0.66 0.65 0.62 0.59 0.57 0.62 0.79 1.05 1.20 1.27 1.48 1.78 2.00 1.82 1.55 1.39 1.34
1.98 1.78 1.67 1.68 1.58 1.67 1.94 1.78 1.56 1.43 1.44 1.46 1.58 1.53 1.78 1.86 1.81 1.75 1.82 1.72 1.71 1.66 1.68 1.53 1.32 1.14 1.05 0.90 0.80 0.81 0.81 0.79 0.91 1.12 1.28 1.32 1.46 1.80 2.10 2.05 1.84 1.63 1.54
2.22 2.14 1.90 1.97 2.00 2.10 2.30 2.16 1.96 2.01 1.80 1.73 1.91 1.88 1.99 2.03 2.00 2.08 1.99 1.97 1.87 1.84 1.82 1.67 1.58 1.54 1.45 1.31 1.09 1.05 1.08 1.01 1.08 1.27 1.33 1.37 1.41 1.68 2.08 2.31 2.22 1.97 1.91
2.19 2.30 2.33 2.29 2.32 2.21 2.28 2.26 2.08 2.01 2.10 1.94 1.91 1.93 1.91 2.00 2.20 2.27 2.25 2.22 2.17 2.13 2.20 2.02 1.80 1.89 1.75 1.67 1.48 1.40 1.34 1.35 1.36 1.48 1.69 1.68 1.48 1.49 1.80 2.19 2.35 2.33 2.33
2.17 2.21 2.35 2.37 2.44 2.38 2.33 2.34 2.26 2.15 2.13 2.19 2.22 2.26 2.09 2.05 2.31 2.39 2.57 2.52 2.46 2.40 2.42 2.37 2.22 2.24 2.02 1.90 1.78 1.66 1.61 1.70 1.72 1.67 1.83 2.00 1.79 1.68 1.66 1.81 2.05 2.24 2.38
1.82 1.97 2.12 2.25 2.35 2.57 2.67 2.76 2.63 2.74 2.73 2.63 2.47 2.46 2.33 2.30 2.48 2.71 2.83 2.81 2.79 2.68 2.74 2.82 2.75 2.56 2.41 2.23 2.06 1.82 1.73 1.85 1.88 1.88 1.91 2.06 2.21 2.07 1.93 1.80 1.85 2.00 2.24
1.61 1.94 2.14 2.32 2.54 2.71 2.94 3.15 3.14 3.27 3.17 3.07 2.97 2.86 2.91 2.98 2.93 3.06 3.18 3.21 3.18 3.21 3.19 3.03 3.18 3.00 2.90 2.72 2.33 2.10 1.86 1.81 1.89 1.84 1.92 1.91 2.05 2.10 2.11 2.01 1.88 1.90 2.11
1.68 2.01 2.29 2.51 2.86 3.22 3.34 3.51 3.45 3.58 3.65 3.68 3.77 3.62 3.48 3.56 3.56 3.67 3.63 3.64 3.64 3.69 3.54 3.52 3.54 3.29 3.07 3.01 2.56 2.32 2.13 1.95 1.94 1.92 1.90 1.94 1.89 1.80 1.89 2.00 2.07 1.88 2.00
2.21 2.29 2.44 2.70 2.98 3.18 3.48 3.81 3.98 4.04 4.23 4.34 4.38 4.47 4.43 4.39 4.51 4.57 4.44 4.32 4.16 4.04 3.86 3.75 3.58 3.38 3.14 3.06 2.90 2.52 2.06 1.77 1.74 1.66 1.70 1.83 1.83 1.77 1.80 1.88 1.95 1.88 1.78
2.53 2.54 2.73 3.00 3.23 3.42 3.78 4.25 4.65 4.79 4.88 4.90 4.92 5.12 5.21 5.24 5.39 5.46 5.38 5.16 4.92 4.60 4.15 3.80 3.60 3.43 3.14 3.14 3.09 2.97 2.39 1.97 1.64 1.34 1.42 1.49 1.55 1.66 1.63 1.63 1.73 1.83 1.77
2.47 2.58 2.79 3.17 3.55 3.96 4.42 4.92 5.31 5.56 5.59 5.52 5.25 5.38 5.56 5.50 5.54 5.69 5.64 5.39 5.02 4.46 3.96 3.78 3.69 3.56 3.36 3.27 3.11 3.15 2.71 2.28 1.92 1.50 1.28 1.20 1.27 1.32 1.33 1.39 1.46 1.59 1.58
2.38 2.62 2.83 3.17 3.76 4.22 4.61 5.25 5.78 6.06 6.26 6.36 6.14 5.84 5.66 5.47 5.34 5.22 5.05 4.64 4.21 3.89 3.62 3.52 3.53 3.35 3.31 3.20 3.12 2.81 2.57 2.31 2.09 1.74 1.40 1.21 1.20 1.21 1.22 1.21 1.27 1.47 1.55
2.28 2.40 2.60 3.07 3.66 4.36 5.01 5.55 6.03 6.43 6.64 6.58 6.17 5.76 5.29 4.94 4.53 4.18 3.82 3.54 3.44 3.26 3.04 2.93 2.90 2.85 2.70 2.63 2.64 2.59 2.52 2.28 1.98 1.77 1.55 1.37 1.34 1.24 1.22 1.28 1.33 1.41 1.52
1.95 2.16 2.40 2.77 3.47 4.21 4.84 5.43 5.85 6.21 6.26 5.95 5.43 4.92 4.60 4.22 3.76 3.32 3.09 2.84 2.69 2.52 2.30 2.17 2.16 2.22 2.30 2.33 2.36 2.34 2.30 2.27 2.13 2.03 1.87 1.66 1.52 1.46 1.37 1.32 1.39 1.46 1.61